Time,TemperatureF,DewpointF,PressureIn,WindDirection,WindDirectionDegrees,WindSpeedMPH,WindSpeedGustMPH,Humidity,HourlyPrecipIn,Conditions,Clouds,dailyrainin,SoftwareType,DateUTC
2013-04-15 00:00:00,66.7,61.7,29.81,North,5,0.0,0.0,84,0.00,,---,0.00,VWS V13.01,2013-04-15 04:00:00,
2013-04-15 00:01:00,66.7,61.7,29.81,North,5,0.0,0.0,84,0.00,,---,0.00,VWS V13.01,2013-04-15 04:01:00,
2013-04-15 00:06:00,66.5,61.5,29.81,North,5,0.0,0.0,84,0.00,,---,0.00,VWS V13.01,2013-04-15 04:06:00,
2013-04-15 00:11:00,66.4,61.4,29.81,North,9,0.0,3.0,84,0.00,,---,0.00,VWS V13.01,2013-04-15 04:11:00,
2013-04-15 00:16:00,66.3,61.3,29.81,North,5,0.0,0.0,84,0.00,,---,0.00,VWS V13.01,2013-04-15 04:16:00,
2013-04-15 00:21:00,66.2,61.6,29.81,North,5,0.0,0.0,85,0.00,,---,0.00,VWS V13.01,2013-04-15 04:21:00,
2013-04-15 00:26:00,66.1,61.5,29.81,North,5,0.0,0.0,85,0.00,,---,0.00,VWS V13.01,2013-04-15 04:26:00,
2013-04-15 00:31:00,66.0,61.4,29.81,North,360,0.0,0.0,85,0.00,,---,0.00,VWS V13.01,2013-04-15 04:31:00,
2013-04-15 00:36:00,65.9,61.3,29.81,North,360,0.0,0.0,85,0.00,,---,0.00,VWS V13.01,2013-04-15 04:36:00,
2013-04-15 00:42:00,65.8,61.2,29.81,North,5,0.0,0.0,85,0.00,,---,0.00,VWS V13.01,2013-04-15 04:42:00,
2013-04-15 00:47:00,65.8,61.2,29.80,North,5,0.0,0.0,85,0.00,,---,0.00,VWS V13.01,2013-04-15 04:47:00,
2013-04-15 00:52:00,65.8,61.2,29.80,North,5,0.0,0.0,85,0.00,,---,0.00,VWS V13.01,2013-04-15 04:52:00,
2013-04-15 00:57:00,65.7,61.4,29.80,North,360,0.0,0.0,86,0.00,,---,0.00,VWS V13.01,2013-04-15 04:57:00,
2013-04-15 01:02:00,65.6,61.3,29.80,North,5,0.0,0.0,86,0.00,,---,0.00,VWS V13.01,2013-04-15 05:02:00,
2013-04-15 01:07:00,65.6,61.3,29.80,North,5,0.0,0.0,86,0.00,,---,0.00,VWS V13.01,2013-04-15 05:07:00,
2013-04-15 01:12:00,65.6,61.6,29.80,North,360,0.0,0.0,87,0.00,,---,0.00,VWS V13.01,2013-04-15 05:12:00,
2013-04-15 01:17:00,65.5,61.5,29.80,North,5,0.0,0.0,87,0.00,,---,0.00,VWS V13.01,2013-04-15 05:17:00,
2013-04-15 01:22:00,65.4,61.4,29.80,North,360,0.0,0.0,87,0.00,,---,0.00,VWS V13.01,2013-04-15 05:22:00,
2013-04-15 01:27:00,65.3,61.3,29.80,North,360,0.0,0.0,87,0.00,,---,0.00,VWS V13.01,2013-04-15 05:27:00,
2013-04-15 01:32:00,65.3,61.3,29.80,North,360,0.0,0.0,87,0.00,,---,0.00,VWS V13.01,2013-04-15 05:32:00,
2013-04-15 01:37:00,65.1,61.5,29.80,North,5,0.0,0.0,88,0.00,,---,0.00,VWS V13.01,2013-04-15 05:37:00,
2013-04-15 01:42:00,65.2,61.9,29.80,North,5,0.0,0.0,89,0.00,,---,0.00,VWS V13.01,2013-04-15 05:42:00,
2013-04-15 01:47:00,65.1,61.8,29.80,North,5,0.0,0.0,89,0.00,,---,0.00,VWS V13.01,2013-04-15 05:47:00,
2013-04-15 01:52:00,64.9,61.3,29.81,North,360,0.0,0.0,88,0.00,,---,0.00,VWS V13.01,2013-04-15 05:52:00,
2013-04-15 01:57:00,64.7,61.4,29.80,North,5,0.0,0.0,89,0.00,,---,0.00,VWS V13.01,2013-04-15 05:57:00,
2013-04-15 02:02:00,64.7,61.4,29.80,North,5,0.0,0.0,89,0.00,,---,0.00,VWS V13.01,2013-04-15 06:02:00,
2013-04-15 02:08:00,64.6,61.3,29.80,North,5,0.0,0.0,89,0.00,,---,0.00,VWS V13.01,2013-04-15 06:08:00,
2013-04-15 02:13:00,64.6,61.3,29.81,North,360,0.0,0.0,89,0.00,,---,0.00,VWS V13.01,2013-04-15 06:13:00,
2013-04-15 02:18:00,64.7,61.4,29.80,North,5,0.0,0.0,89,0.00,,---,0.00,VWS V13.01,2013-04-15 06:18:00,
2013-04-15 02:23:00,64.7,61.4,29.81,North,360,0.0,0.0,89,0.00,,---,0.00,VWS V13.01,2013-04-15 06:23:00,
2013-04-15 02:28:00,64.9,61.6,29.81,North,5,0.0,0.0,89,0.00,,---,0.00,VWS V13.01,2013-04-15 06:28:00,
2013-04-15 02:33:00,65.1,61.8,29.81,North,5,0.0,0.0,89,0.00,,---,0.00,VWS V13.01,2013-04-15 06:33:00,
2013-04-15 02:39:00,65.2,61.9,29.81,North,5,0.0,0.0,89,0.00,,---,0.00,VWS V13.01,2013-04-15 06:39:00,
2013-04-15 02:44:00,65.3,62.0,29.81,North,5,0.0,0.0,89,0.00,,---,0.00,VWS V13.01,2013-04-15 06:44:00,
2013-04-15 02:49:00,65.4,62.1,29.81,North,5,0.0,0.0,89,0.00,,---,0.00,VWS V13.01,2013-04-15 06:49:00,
2013-04-15 02:54:00,65.6,62.3,29.81,North,360,0.0,0.0,89,0.00,,---,0.00,VWS V13.01,2013-04-15 06:54:00,
2013-04-15 02:59:00,65.6,62.3,29.80,North,360,0.0,0.0,89,0.00,,---,0.00,VWS V13.01,2013-04-15 06:59:00,
2013-04-15 03:04:00,65.5,61.9,29.80,North,360,0.0,0.0,88,0.00,,---,0.00,VWS V13.01,2013-04-15 07:04:00,
2013-04-15 03:41:00,65.9,62.6,29.79,SSW,207,0.0,2.0,89,0.00,,---,0.00,VWS V13.01,2013-04-15 07:41:00,
2013-04-15 03:42:00,65.9,62.6,29.79,SSW,207,0.0,2.0,89,0.00,,---,0.00,VWS V13.01,2013-04-15 07:42:00,
2013-04-15 03:43:00,65.9,62.2,29.79,SSW,207,0.0,2.0,88,0.00,,---,0.00,VWS V13.01,2013-04-15 07:43:00,
2013-04-15 03:48:00,65.9,61.9,29.79,SSW,207,0.0,0.0,87,0.00,,---,0.00,VWS V13.01,2013-04-15 07:48:00,
2013-04-15 03:49:00,65.9,61.9,29.79,SSW,207,0.0,0.0,87,0.00,,---,0.00,VWS V13.01,2013-04-15 07:49:00,
2013-04-15 03:50:00,65.9,62.2,29.79,SSW,207,0.0,0.0,88,0.00,,---,0.00,VWS V13.01,2013-04-15 07:50:00,
2013-04-15 03:55:00,65.9,62.2,29.79,SSW,207,0.0,0.0,88,0.00,,---,0.00,VWS V13.01,2013-04-15 07:55:00,
2013-04-15 04:00:00,65.8,62.2,29.79,SSW,207,0.0,0.0,88,0.00,,---,0.00,VWS V13.01,2013-04-15 08:00:00,
2013-04-15 04:05:00,65.8,62.2,29.79,SSW,207,0.0,0.0,88,0.00,,---,0.00,VWS V13.01,2013-04-15 08:05:00,
2013-04-15 04:11:00,65.7,62.0,29.79,SSW,207,0.0,0.0,88,0.00,,---,0.00,VWS V13.01,2013-04-15 08:11:00,
2013-04-15 04:16:00,65.8,62.2,29.79,SSW,207,0.0,0.0,88,0.00,,---,0.00,VWS V13.01,2013-04-15 08:16:00,
2013-04-15 04:21:00,65.8,62.2,29.80,SSW,207,0.0,0.0,88,0.00,,---,0.00,VWS V13.01,2013-04-15 08:21:00,
2013-04-15 04:26:00,65.8,62.2,29.80,SSW,207,0.0,0.0,88,0.00,,---,0.00,VWS V13.01,2013-04-15 08:26:00,
2013-04-15 04:31:00,65.7,62.4,29.79,SSW,207,0.0,0.0,89,0.00,,---,0.00,VWS V13.01,2013-04-15 08:31:00,
2013-04-15 04:35:00,65.7,62.4,29.79,SSW,207,0.0,0.0,89,0.00,,---,0.00,VWS V13.01,2013-04-15 08:35:00,
2013-04-15 04:40:00,65.6,62.3,29.79,SSW,207,0.0,0.0,89,0.00,,---,0.00,VWS V13.01,2013-04-15 08:40:00,
2013-04-15 04:41:00,65.6,62.3,29.79,SSW,207,0.0,1.0,89,0.00,,---,0.00,VWS V13.01,2013-04-15 08:41:00,
2013-04-15 04:42:00,65.6,62.3,29.79,SSW,207,0.0,1.0,89,0.00,,---,0.00,VWS V13.01,2013-04-15 08:42:00,
2013-04-15 04:47:00,65.7,62.4,29.79,SSW,207,0.0,0.0,89,0.00,,---,0.00,VWS V13.01,2013-04-15 08:47:00,
2013-04-15 04:52:00,65.8,62.5,29.79,SSW,208,0.0,0.0,89,0.00,,---,0.00,VWS V13.01,2013-04-15 08:52:00,
2013-04-15 04:57:00,65.9,62.2,29.80,SSW,208,0.0,1.0,88,0.00,,---,0.00,VWS V13.01,2013-04-15 08:57:00,
2013-04-15 05:02:00,66.1,62.8,29.80,SSW,210,1.0,3.0,89,0.00,,---,0.00,VWS V13.01,2013-04-15 09:02:00,
2013-04-15 05:07:00,66.1,62.8,29.80,SSW,210,0.0,0.0,89,0.00,,---,0.00,VWS V13.01,2013-04-15 09:07:00,
2013-04-15 05:12:00,66.1,62.8,29.79,SSW,210,0.0,2.0,89,0.00,,---,0.00,VWS V13.01,2013-04-15 09:12:00,
2013-04-15 05:17:00,66.1,62.8,29.79,SSW,211,0.0,2.0,89,0.00,,---,0.00,VWS V13.01,2013-04-15 09:17:00,
2013-04-15 05:23:00,66.1,62.8,29.79,SSW,211,0.0,2.0,89,0.00,,---,0.00,VWS V13.01,2013-04-15 09:23:00,
2013-04-15 05:28:00,66.0,62.7,29.79,SSW,209,0.0,1.0,89,0.00,,---,0.00,VWS V13.01,2013-04-15 09:28:00,
2013-04-15 05:33:00,66.0,62.7,29.79,SSW,209,0.0,1.0,89,0.00,,---,0.00,VWS V13.01,2013-04-15 09:33:00,
2013-04-15 05:38:00,66.0,62.7,29.78,South,187,0.0,2.0,89,0.00,,---,0.00,VWS V13.01,2013-04-15 09:38:00,
2013-04-15 05:43:00,65.9,62.9,29.79,SSW,192,0.0,2.0,90,0.00,,---,0.00,VWS V13.01,2013-04-15 09:43:00,
2013-04-15 05:48:00,65.8,62.8,29.79,SSW,202,0.0,3.0,90,0.00,,---,0.00,VWS V13.01,2013-04-15 09:48:00,
2013-04-15 05:53:00,65.8,62.8,29.79,SSW,202,0.0,3.0,90,0.00,,---,0.00,VWS V13.01,2013-04-15 09:53:00,
2013-04-15 05:58:00,65.9,62.9,29.79,SSW,202,0.0,0.0,90,0.00,,---,0.00,VWS V13.01,2013-04-15 09:58:00,
2013-04-15 06:03:00,66.0,63.0,29.78,SSW,202,0.0,0.0,90,0.00,,---,0.00,VWS V13.01,2013-04-15 10:03:00,
2013-04-15 06:08:00,66.0,63.0,29.78,SSW,202,0.0,0.0,90,0.00,,---,0.00,VWS V13.01,2013-04-15 10:08:00,
2013-04-15 06:13:00,66.0,62.7,29.78,SSW,201,0.0,3.0,89,0.00,,---,0.00,VWS V13.01,2013-04-15 10:13:00,
2013-04-15 06:18:00,66.0,62.7,29.78,SSW,201,0.0,0.0,89,0.00,,---,0.00,VWS V13.01,2013-04-15 10:18:00,
2013-04-15 06:23:00,66.0,62.7,29.78,SSW,202,0.0,2.0,89,0.00,,---,0.00,VWS V13.01,2013-04-15 10:23:00,
2013-04-15 06:28:00,65.9,62.6,29.78,SSW,200,0.0,0.0,89,0.00,,---,0.00,VWS V13.01,2013-04-15 10:28:00,
2013-04-15 06:33:00,65.9,62.2,29.79,SSW,202,0.0,1.0,88,0.00,,---,0.00,VWS V13.01,2013-04-15 10:33:00,
2013-04-15 06:38:00,66.0,62.3,29.79,SSW,202,0.0,1.0,88,0.00,,---,0.00,VWS V13.01,2013-04-15 10:38:00,
2013-04-15 06:44:00,66.1,62.5,29.79,SSW,201,0.0,1.0,88,0.00,,---,0.00,VWS V13.01,2013-04-15 10:44:00,
2013-04-15 06:49:00,66.0,62.3,29.79,SSW,201,0.0,0.0,88,0.00,,---,0.00,VWS V13.01,2013-04-15 10:49:00,
2013-04-15 06:54:00,66.0,62.7,29.79,SSW,207,1.0,3.0,89,0.00,,---,0.00,VWS V13.01,2013-04-15 10:54:00,
2013-04-15 06:59:00,66.1,62.8,29.79,SSW,207,0.0,0.0,89,0.00,,---,0.00,VWS V13.01,2013-04-15 10:59:00,
2013-04-15 07:04:00,66.1,62.5,29.79,SSW,196,0.0,5.0,88,0.00,,---,0.00,VWS V13.01,2013-04-15 11:04:00,
2013-04-15 07:09:00,66.0,62.0,29.79,SSW,194,0.0,3.0,87,0.00,,---,0.00,VWS V13.01,2013-04-15 11:09:00,
2013-04-15 07:14:00,66.0,62.0,29.79,SW,216,0.0,3.0,87,0.00,,---,0.00,VWS V13.01,2013-04-15 11:14:00,
2013-04-15 07:19:00,66.0,62.0,29.79,SW,218,0.0,0.0,87,0.00,,---,0.00,VWS V13.01,2013-04-15 11:19:00,
2013-04-15 07:24:00,66.1,61.8,29.80,South,174,0.0,4.0,86,0.00,,---,0.00,VWS V13.01,2013-04-15 11:24:00,
2013-04-15 07:29:00,66.2,62.2,29.80,South,175,0.0,1.0,87,0.00,,---,0.00,VWS V13.01,2013-04-15 11:29:00,
2013-04-15 07:34:00,66.3,62.3,29.80,SW,228,0.0,3.0,87,0.00,,---,0.00,VWS V13.01,2013-04-15 11:34:00,
2013-04-15 07:39:00,66.4,62.4,29.81,SSW,202,3.0,4.0,87,0.00,,---,0.00,VWS V13.01,2013-04-15 11:39:00,
2013-04-15 07:44:00,66.6,62.6,29.81,SSW,202,0.0,4.0,87,0.00,,---,0.00,VWS V13.01,2013-04-15 11:44:00,
2013-04-15 07:50:00,66.6,62.6,29.81,SSW,202,0.0,0.0,87,0.00,,---,0.00,VWS V13.01,2013-04-15 11:50:00,
2013-04-15 07:55:00,66.6,62.6,29.81,SSW,202,0.0,0.0,87,0.00,,---,0.00,VWS V13.01,2013-04-15 11:55:00,
2013-04-15 08:00:00,66.7,63.0,29.81,SSW,202,0.0,0.0,88,0.00,,---,0.00,VWS V13.01,2013-04-15 12:00:00,
2013-04-15 08:05:00,66.7,62.7,29.81,SSW,202,0.0,0.0,87,0.00,,---,0.00,VWS V13.01,2013-04-15 12:05:00,
2013-04-15 08:10:00,66.7,62.7,29.81,SSW,202,0.0,0.0,87,0.00,,---,0.00,VWS V13.01,2013-04-15 12:10:00,
2013-04-15 08:15:00,66.7,63.0,29.82,SSW,202,0.0,0.0,88,0.00,,---,0.00,VWS V13.01,2013-04-15 12:15:00,
2013-04-15 08:20:00,66.8,63.1,29.82,South,188,0.0,0.0,88,0.00,,---,0.00,VWS V13.01,2013-04-15 12:20:00,
2013-04-15 08:25:00,66.9,63.2,29.82,South,188,0.0,0.0,88,0.00,,---,0.00,VWS V13.01,2013-04-15 12:25:00,
2013-04-15 08:30:00,67.2,63.5,29.82,South,188,0.0,0.0,88,0.00,,---,0.00,VWS V13.01,2013-04-15 12:30:00,
2013-04-15 08:35:00,67.3,63.6,29.83,SSW,199,0.0,0.0,88,0.00,,---,0.00,VWS V13.01,2013-04-15 12:35:00,
2013-04-15 08:40:00,67.4,63.7,29.83,SSW,199,0.0,0.0,88,0.00,,---,0.00,VWS V13.01,2013-04-15 12:40:00,
2013-04-15 08:45:00,67.5,63.2,29.83,SSW,211,0.0,0.0,86,0.00,,---,0.00,VWS V13.01,2013-04-15 12:45:00,
2013-04-15 08:50:00,67.7,63.4,29.83,SSW,210,0.0,0.0,86,0.00,,---,0.00,VWS V13.01,2013-04-15 12:50:00,
2013-04-15 08:55:00,67.9,63.6,29.83,SSW,211,0.0,0.0,86,0.00,,---,0.00,VWS V13.01,2013-04-15 12:55:00,
2013-04-15 09:01:00,68.4,64.1,29.83,SSW,211,0.0,0.0,86,0.00,,---,0.00,VWS V13.01,2013-04-15 13:01:00,
2013-04-15 09:06:00,69.3,64.6,29.84,SSW,210,0.0,0.0,85,0.00,,---,0.00,VWS V13.01,2013-04-15 13:06:00,
2013-04-15 09:12:00,70.2,64.4,29.84,SSW,210,0.0,0.0,82,0.00,,---,0.00,VWS V13.01,2013-04-15 13:12:00,
2013-04-15 09:17:00,70.8,64.7,29.85,SSW,211,0.0,0.0,81,0.00,,---,0.00,VWS V13.01,2013-04-15 13:17:00,
2013-04-15 09:22:00,71.4,64.6,29.85,SSW,211,0.0,0.0,79,0.00,,---,0.00,VWS V13.01,2013-04-15 13:22:00,
2013-04-15 09:27:00,72.0,64.4,29.85,SSW,210,0.0,0.0,77,0.00,,---,0.00,VWS V13.01,2013-04-15 13:27:00,
2013-04-15 09:32:00,72.7,64.7,29.85,SSW,210,0.0,0.0,76,0.00,,---,0.00,VWS V13.01,2013-04-15 13:32:00,
2013-04-15 09:37:00,73.3,64.9,29.85,SSE,153,2.0,2.0,75,0.00,,---,0.00,VWS V13.01,2013-04-15 13:37:00,
2013-04-15 09:42:00,73.7,65.3,29.85,ESE,115,0.0,3.0,75,0.00,,---,0.00,VWS V13.01,2013-04-15 13:42:00,
2013-04-15 09:48:00,73.7,65.7,29.85,ENE,57,2.0,3.0,76,0.00,,---,0.00,VWS V13.01,2013-04-15 13:48:00,
2013-04-15 09:53:00,73.5,65.1,29.85,ENE,59,1.0,4.0,75,0.00,,---,0.00,VWS V13.01,2013-04-15 13:53:00,
2013-04-15 09:59:00,73.3,65.3,29.85,ENE,61,0.0,5.0,76,0.00,,---,0.00,VWS V13.01,2013-04-15 13:59:00,
2013-04-15 10:04:00,73.3,65.7,29.85,NNE,32,0.0,5.0,77,0.00,,---,0.00,VWS V13.01,2013-04-15 14:04:00,
2013-04-15 10:09:00,73.3,65.3,29.86,NNE,29,0.0,3.0,76,0.00,,---,0.00,VWS V13.01,2013-04-15 14:09:00,
2013-04-15 10:14:00,73.3,67.1,29.86,NNE,29,3.0,3.0,81,0.00,,---,0.00,VWS V13.01,2013-04-15 14:14:00,
2013-04-15 10:19:00,73.1,65.1,29.86,ENE,61,0.0,4.0,76,0.00,,---,0.00,VWS V13.01,2013-04-15 14:19:00,
2013-04-15 10:24:00,73.3,65.3,29.86,NE,50,0.0,4.0,76,0.00,,---,0.00,VWS V13.01,2013-04-15 14:24:00,
2013-04-15 10:29:00,73.7,65.7,29.86,NNE,27,0.0,6.0,76,0.00,,---,0.00,VWS V13.01,2013-04-15 14:29:00,
2013-04-15 10:34:00,73.9,65.1,29.86,NNE,24,0.0,6.0,74,0.00,,---,0.00,VWS V13.01,2013-04-15 14:34:00,
2013-04-15 10:39:00,74.4,65.6,29.86,NE,40,0.0,3.0,74,0.00,,---,0.00,VWS V13.01,2013-04-15 14:39:00,
2013-04-15 10:45:00,75.0,65.8,29.87,NNE,33,0.0,6.0,73,0.00,,---,0.00,VWS V13.01,2013-04-15 14:45:00,
2013-04-15 10:50:00,75.2,65.6,29.87,NNE,32,0.0,5.0,72,0.00,,---,0.00,VWS V13.01,2013-04-15 14:50:00,
2013-04-15 10:55:00,75.4,66.2,29.87,NNE,32,0.0,5.0,73,0.00,,---,0.00,VWS V13.01,2013-04-15 14:55:00,
2013-04-15 11:00:00,75.8,66.5,29.87,NE,36,0.0,4.0,73,0.00,,---,0.00,VWS V13.01,2013-04-15 15:00:00,
2013-04-15 11:05:00,76.0,66.3,29.87,NE,49,0.0,0.0,72,0.00,,---,0.00,VWS V13.01,2013-04-15 15:05:00,
2013-04-15 11:10:00,76.4,67.1,29.87,NE,56,0.0,3.0,73,0.00,,---,0.00,VWS V13.01,2013-04-15 15:10:00,
2013-04-15 11:15:00,76.9,66.8,29.87,NE,47,3.0,3.0,71,0.00,,---,0.00,VWS V13.01,2013-04-15 15:15:00,
2013-04-15 11:20:00,77.6,67.1,29.86,NE,53,0.0,4.0,70,0.00,,---,0.00,VWS V13.01,2013-04-15 15:20:00,
2013-04-15 11:26:00,78.3,67.3,29.86,NE,48,0.0,0.0,69,0.00,,---,0.00,VWS V13.01,2013-04-15 15:26:00,
2013-04-15 11:32:00,78.9,67.0,29.86,ENE,59,0.0,4.0,67,0.00,,---,0.00,VWS V13.01,2013-04-15 15:32:00,
2013-04-15 11:37:00,79.3,68.3,29.86,ENE,59,0.0,0.0,69,0.00,,---,0.00,VWS V13.01,2013-04-15 15:37:00,
2013-04-15 11:42:00,79.8,67.4,29.87,East,98,0.0,3.0,66,0.00,,---,0.00,VWS V13.01,2013-04-15 15:42:00,
2013-04-15 11:47:00,80.2,67.8,29.86,East,93,0.0,0.0,66,0.00,,---,0.00,VWS V13.01,2013-04-15 15:47:00,
2013-04-15 11:52:00,80.7,68.3,29.87,East,86,0.0,1.0,66,0.00,,---,0.00,VWS V13.01,2013-04-15 15:52:00,
2013-04-15 11:57:00,80.7,67.4,29.87,East,86,0.0,0.0,64,0.00,,---,0.00,VWS V13.01,2013-04-15 15:57:00,
2013-04-15 12:02:00,81.0,66.3,29.86,ESE,109,0.0,1.0,61,0.00,,---,0.00,VWS V13.01,2013-04-15 16:02:00,
2013-04-15 12:07:00,81.5,67.2,29.87,ESE,107,0.0,0.0,62,0.00,,---,0.00,VWS V13.01,2013-04-15 16:07:00,
2013-04-15 12:12:00,81.3,66.6,29.86,South,171,0.0,2.0,61,0.00,,---,0.00,VWS V13.01,2013-04-15 16:12:00,
2013-04-15 12:17:00,81.0,67.7,29.86,South,173,0.0,0.0,64,0.00,,---,0.00,VWS V13.01,2013-04-15 16:17:00,
2013-04-15 12:23:00,81.2,66.5,29.87,South,173,0.0,1.0,61,0.00,,---,0.00,VWS V13.01,2013-04-15 16:23:00,
2013-04-15 12:28:00,81.4,67.1,29.86,ESE,110,0.0,3.0,62,0.00,,---,0.00,VWS V13.01,2013-04-15 16:28:00,
2013-04-15 12:33:00,81.7,66.5,29.87,SE,133,0.0,3.0,60,0.00,,---,0.00,VWS V13.01,2013-04-15 16:33:00,
2013-04-15 12:38:00,81.7,67.4,29.86,SE,139,0.0,0.0,62,0.00,,---,0.00,VWS V13.01,2013-04-15 16:38:00,
2013-04-15 12:43:00,82.3,67.0,29.87,SE,138,0.0,0.0,60,0.00,,---,0.00,VWS V13.01,2013-04-15 16:43:00,
2013-04-15 12:48:00,82.5,67.2,29.86,SE,138,0.0,0.0,60,0.00,,---,0.00,VWS V13.01,2013-04-15 16:48:00,
2013-04-15 12:53:00,82.6,67.8,29.86,SE,136,0.0,0.0,61,0.00,,---,0.00,VWS V13.01,2013-04-15 16:53:00,
2013-04-15 12:58:00,83.0,68.7,29.86,East,98,0.0,1.0,62,0.00,,---,0.00,VWS V13.01,2013-04-15 16:58:00,
2013-04-15 13:03:00,83.3,68.5,29.86,East,98,0.0,1.0,61,0.00,,---,0.00,VWS V13.01,2013-04-15 17:03:00,
2013-04-15 13:08:00,83.6,69.2,29.86,ESE,111,0.0,0.0,62,0.00,,---,0.00,VWS V13.01,2013-04-15 17:08:00,
2013-04-15 13:13:00,83.7,68.3,29.86,SE,138,0.0,1.0,60,0.00,,---,0.00,VWS V13.01,2013-04-15 17:13:00,
2013-04-15 13:18:00,84.0,69.6,29.85,SE,138,0.0,1.0,62,0.00,,---,0.00,VWS V13.01,2013-04-15 17:18:00,
2013-04-15 13:21:00,84.2,69.3,29.86,SE,138,0.0,1.0,61,0.00,,---,0.00,VWS V13.01,2013-04-15 17:21:00,
2013-04-15 13:22:00,84.2,69.3,29.86,SE,138,0.0,1.0,61,0.00,,---,0.00,VWS V13.01,2013-04-15 17:22:00,
2013-04-15 13:25:00,84.3,68.9,29.85,SE,138,0.0,1.0,60,0.00,,---,0.00,VWS V13.01,2013-04-15 17:25:00,
2013-04-15 13:31:00,84.2,69.3,29.85,SW,220,0.0,4.0,61,0.00,,---,0.00,VWS V13.01,2013-04-15 17:31:00,
2013-04-15 13:36:00,84.3,69.9,29.85,SW,226,2.0,3.0,62,0.00,,---,0.00,VWS V13.01,2013-04-15 17:36:00,
2013-04-15 13:41:00,84.8,70.3,29.85,SW,226,1.0,4.0,62,0.00,,---,0.00,VWS V13.01,2013-04-15 17:41:00,
2013-04-15 13:46:00,85.4,70.4,29.85,SW,226,0.0,3.0,61,0.00,,---,0.00,VWS V13.01,2013-04-15 17:46:00,
2013-04-15 13:51:00,85.9,70.4,29.85,SW,226,0.0,3.0,60,0.00,,---,0.00,VWS V13.01,2013-04-15 17:51:00,
2013-04-15 13:57:00,86.0,69.0,29.85,SW,226,2.0,2.0,57,0.00,,---,0.00,VWS V13.01,2013-04-15 17:57:00,
2013-04-15 14:02:00,85.9,69.4,29.85,SW,226,0.0,2.0,58,0.00,,---,0.00,VWS V13.01,2013-04-15 18:02:00,
2013-04-15 14:07:00,86.3,69.3,29.84,SW,226,1.0,2.0,57,0.00,,---,0.00,VWS V13.01,2013-04-15 18:07:00,
2013-04-15 14:12:00,86.3,68.8,29.84,SW,225,1.0,4.0,56,0.00,,---,0.00,VWS V13.01,2013-04-15 18:12:00,
2013-04-15 14:17:00,86.3,69.3,29.84,SW,225,1.0,2.0,57,0.00,,---,0.00,VWS V13.01,2013-04-15 18:17:00,
2013-04-15 14:22:00,86.5,69.5,29.84,SW,217,2.0,5.0,57,0.00,,---,0.00,VWS V13.01,2013-04-15 18:22:00,
2013-04-15 14:27:00,86.7,69.1,29.84,SW,218,1.0,4.0,56,0.00,,---,0.00,VWS V13.01,2013-04-15 18:27:00,
2013-04-15 14:29:00,86.8,70.3,29.84,SW,218,0.0,4.0,58,0.00,,---,0.00,VWS V13.01,2013-04-15 18:29:00,
2013-04-15 14:30:00,86.9,70.4,29.84,SW,218,0.0,4.0,58,0.00,,---,0.00,VWS V13.01,2013-04-15 18:30:00,
2013-04-15 14:34:00,86.9,69.3,29.84,SW,215,0.0,4.0,56,0.00,,---,0.00,VWS V13.01,2013-04-15 18:34:00,
2013-04-15 14:39:00,87.1,71.0,29.84,SW,215,1.0,2.0,59,0.00,,---,0.00,VWS V13.01,2013-04-15 18:39:00,
2013-04-15 14:44:00,87.4,70.8,29.84,SW,215,1.0,2.0,58,0.00,,---,0.00,VWS V13.01,2013-04-15 18:44:00,
2013-04-15 14:49:00,87.6,70.0,29.84,SW,215,0.0,4.0,56,0.00,,---,0.00,VWS V13.01,2013-04-15 18:49:00,
2013-04-15 14:54:00,87.6,70.5,29.83,SW,217,3.0,4.0,57,0.00,,---,0.00,VWS V13.01,2013-04-15 18:54:00,
2013-04-15 14:59:00,87.7,70.6,29.83,SW,217,0.0,3.0,57,0.00,,---,0.00,VWS V13.01,2013-04-15 18:59:00,
2013-04-15 15:04:00,88.3,70.6,29.83,NNE,14,0.0,3.0,56,0.00,,---,0.00,VWS V13.01,2013-04-15 19:04:00,
2013-04-15 15:09:00,88.7,68.8,29.83,West,276,0.0,4.0,52,0.00,,---,0.00,VWS V13.01,2013-04-15 19:09:00,
2013-04-15 15:14:00,88.9,70.1,29.83,WNW,289,1.0,4.0,54,0.00,,---,0.00,VWS V13.01,2013-04-15 19:14:00,
2013-04-15 15:19:00,89.0,68.5,29.83,NNE,33,1.0,4.0,51,0.00,,---,0.00,VWS V13.01,2013-04-15 19:19:00,
2013-04-15 15:24:00,88.8,68.9,29.82,ENE,64,0.0,4.0,52,0.00,,---,0.00,VWS V13.01,2013-04-15 19:24:00,
2013-04-15 15:29:00,88.4,69.1,29.82,ENE,59,0.0,2.0,53,0.00,,---,0.00,VWS V13.01,2013-04-15 19:29:00,
2013-04-15 15:35:00,87.7,68.5,29.82,ENE,59,0.0,2.0,53,0.00,,---,0.00,VWS V13.01,2013-04-15 19:35:00,
2013-04-15 15:40:00,87.8,68.6,29.82,ENE,59,0.0,0.0,53,0.00,,---,0.00,VWS V13.01,2013-04-15 19:40:00,
2013-04-15 15:45:00,88.2,70.0,29.81,ENE,59,0.0,0.0,55,0.00,,---,0.00,VWS V13.01,2013-04-15 19:45:00,
2013-04-15 15:50:00,88.6,69.8,29.81,NNE,28,3.0,4.0,54,0.00,,---,0.00,VWS V13.01,2013-04-15 19:50:00,
2013-04-15 15:56:00,88.7,68.8,29.81,NNE,24,2.0,3.0,52,0.00,,---,0.00,VWS V13.01,2013-04-15 19:56:00,
2013-04-15 15:57:00,88.8,68.9,29.81,NNE,30,0.0,3.0,52,0.00,,---,0.00,VWS V13.01,2013-04-15 19:57:00,
2013-04-15 15:58:00,88.8,68.4,29.81,NNE,30,0.0,3.0,51,0.00,,---,0.00,VWS V13.01,2013-04-15 19:58:00,
2013-04-15 16:02:00,88.7,68.3,29.81,NNE,29,0.0,3.0,51,0.00,,---,0.00,VWS V13.01,2013-04-15 20:02:00,
2013-04-15 16:03:00,88.7,68.8,29.80,NNE,29,0.0,3.0,52,0.00,,---,0.00,VWS V13.01,2013-04-15 20:03:00,
2013-04-15 16:04:00,88.7,68.8,29.80,NNE,29,0.0,3.0,52,0.00,,---,0.00,VWS V13.01,2013-04-15 20:04:00,
2013-04-15 16:09:00,89.0,70.2,29.80,ESE,104,0.0,0.0,54,0.00,,---,0.00,VWS V13.01,2013-04-15 20:09:00,
2013-04-15 16:14:00,89.2,68.2,29.80,ESE,102,0.0,2.0,50,0.00,,---,0.00,VWS V13.01,2013-04-15 20:14:00,
2013-04-15 16:19:00,89.4,68.9,29.80,ESE,106,0.0,1.0,51,0.00,,---,0.00,VWS V13.01,2013-04-15 20:19:00,
2013-04-15 16:24:00,89.5,67.8,29.80,ENE,73,0.0,2.0,49,0.00,,---,0.00,VWS V13.01,2013-04-15 20:24:00,
2013-04-15 16:29:00,89.6,67.9,29.80,ENE,72,0.0,1.0,49,0.00,,---,0.00,VWS V13.01,2013-04-15 20:29:00,
2013-04-15 16:35:00,89.6,68.5,29.80,ENE,69,2.0,2.0,50,0.00,,---,0.00,VWS V13.01,2013-04-15 20:35:00,
2013-04-15 16:40:00,89.7,70.9,29.80,ENE,69,0.0,2.0,54,0.00,,---,0.00,VWS V13.01,2013-04-15 20:40:00,
2013-04-15 16:45:00,89.7,67.4,29.80,NE,34,1.0,6.0,48,0.00,,---,0.00,VWS V13.01,2013-04-15 20:45:00,
2013-04-15 16:50:00,89.7,68.6,29.80,NE,41,0.0,6.0,50,0.00,,---,0.00,VWS V13.01,2013-04-15 20:50:00,
2013-04-15 16:55:00,89.9,69.4,29.79,NE,40,2.0,6.0,51,0.00,,---,0.00,VWS V13.01,2013-04-15 20:55:00,
2013-04-15 17:00:00,89.8,67.5,29.79,NE,40,0.0,0.0,48,0.00,,---,0.00,VWS V13.01,2013-04-15 21:00:00,
2013-04-15 17:05:00,89.6,67.9,29.80,NNE,30,2.0,7.0,49,0.00,,---,0.00,VWS V13.01,2013-04-15 21:05:00,
2013-04-15 17:10:00,89.6,67.9,29.80,NE,39,1.0,8.0,49,0.00,,---,0.00,VWS V13.01,2013-04-15 21:10:00,
2013-04-15 17:15:00,89.8,68.1,29.80,NE,35,2.0,8.0,49,0.00,,---,0.00,VWS V13.01,2013-04-15 21:15:00,
2013-04-15 17:20:00,90.0,68.9,29.80,North,355,3.0,5.0,50,0.00,,---,0.00,VWS V13.01,2013-04-15 21:20:00,
2013-04-15 17:25:00,90.0,68.9,29.80,NNE,28,0.0,10.0,50,0.00,,---,0.00,VWS V13.01,2013-04-15 21:25:00,
2013-04-15 17:30:00,89.8,68.7,29.80,NE,41,0.0,4.0,50,0.00,,---,0.00,VWS V13.01,2013-04-15 21:30:00,
2013-04-15 17:35:00,89.6,67.9,29.80,NE,56,0.0,1.0,49,0.00,,---,0.00,VWS V13.01,2013-04-15 21:35:00,
2013-04-15 17:40:00,89.6,68.5,29.80,NE,55,2.0,4.0,50,0.00,,---,0.00,VWS V13.01,2013-04-15 21:40:00,
2013-04-15 17:46:00,89.7,68.6,29.80,NE,46,4.0,4.0,50,0.00,,---,0.00,VWS V13.01,2013-04-15 21:46:00,
2013-04-15 17:51:00,89.7,68.6,29.80,NNE,31,1.0,6.0,50,0.00,,---,0.00,VWS V13.01,2013-04-15 21:51:00,
2013-04-15 17:56:00,89.4,68.9,29.80,NE,56,1.0,2.0,51,0.00,,---,0.00,VWS V13.01,2013-04-15 21:56:00,
2013-04-15 18:01:00,89.3,68.2,29.81,NE,40,1.0,5.0,50,0.00,,---,0.00,VWS V13.01,2013-04-15 22:01:00,
2013-04-15 18:06:00,89.3,68.2,29.81,ENE,63,0.0,1.0,50,0.00,,---,0.00,VWS V13.01,2013-04-15 22:06:00,
2013-04-15 18:11:00,89.2,68.2,29.81,NE,49,0.0,5.0,50,0.00,,---,0.00,VWS V13.01,2013-04-15 22:11:00,
2013-04-15 18:16:00,89.0,68.0,29.81,ENE,58,0.0,5.0,50,0.00,,---,0.00,VWS V13.01,2013-04-15 22:16:00,
2013-04-15 18:21:00,88.8,67.8,29.81,NE,34,1.0,6.0,50,0.00,,---,0.00,VWS V13.01,2013-04-15 22:21:00,
2013-04-15 18:26:00,88.5,68.1,29.81,NE,49,1.0,4.0,51,0.00,,---,0.00,VWS V13.01,2013-04-15 22:26:00,
2013-04-15 18:31:00,88.3,67.9,29.81,NE,44,0.0,4.0,51,0.00,,---,0.00,VWS V13.01,2013-04-15 22:31:00,
2013-04-15 18:36:00,88.1,67.7,29.81,NE,44,1.0,3.0,51,0.00,,---,0.00,VWS V13.01,2013-04-15 22:36:00,
2013-04-15 18:42:00,88.0,67.6,29.81,ENE,63,0.0,5.0,51,0.00,,---,0.00,VWS V13.01,2013-04-15 22:42:00,
2013-04-15 18:47:00,87.9,68.7,29.82,ENE,63,2.0,3.0,53,0.00,,---,0.00,VWS V13.01,2013-04-15 22:47:00,
2013-04-15 18:52:00,87.7,68.5,29.82,ENE,61,2.0,3.0,53,0.00,,---,0.00,VWS V13.01,2013-04-15 22:52:00,
2013-04-15 18:57:00,87.5,68.3,29.82,NE,44,1.0,6.0,53,0.00,,---,0.00,VWS V13.01,2013-04-15 22:57:00,
2013-04-15 19:02:00,87.3,68.6,29.82,NE,49,0.0,6.0,54,0.00,,---,0.00,VWS V13.01,2013-04-15 23:02:00,
2013-04-15 19:07:00,87.1,69.0,29.82,NE,39,0.0,3.0,55,0.00,,---,0.00,VWS V13.01,2013-04-15 23:07:00,
2013-04-15 19:12:00,86.8,68.7,29.82,ENE,60,0.0,5.0,55,0.00,,---,0.00,VWS V13.01,2013-04-15 23:12:00,
2013-04-15 19:17:00,86.5,67.9,29.82,ENE,71,0.0,4.0,54,0.00,,---,0.00,VWS V13.01,2013-04-15 23:17:00,
2013-04-15 19:22:00,86.3,68.2,29.83,ENE,63,0.0,5.0,55,0.00,,---,0.00,VWS V13.01,2013-04-15 23:22:00,
2013-04-15 19:27:00,86.0,68.0,29.83,ENE,63,0.0,0.0,55,0.00,,---,0.00,VWS V13.01,2013-04-15 23:27:00,
2013-04-15 19:32:00,85.7,68.2,29.83,ENE,63,0.0,0.0,56,0.00,,---,0.00,VWS V13.01,2013-04-15 23:32:00,
2013-04-15 19:37:00,85.4,68.4,29.83,ENE,63,0.0,0.0,57,0.00,,---,0.00,VWS V13.01,2013-04-15 23:37:00,
2013-04-15 19:42:00,85.1,68.2,29.83,ENE,63,0.0,0.0,57,0.00,,---,0.00,VWS V13.01,2013-04-15 23:42:00,
2013-04-15 19:47:00,84.8,67.9,29.83,ENE,63,0.0,0.0,57,0.00,,---,0.00,VWS V13.01,2013-04-15 23:47:00,
2013-04-15 19:52:00,84.5,67.6,29.84,ENE,63,0.0,0.0,57,0.00,,---,0.00,VWS V13.01,2013-04-15 23:52:00,
2013-04-15 19:57:00,84.3,68.9,29.84,ENE,63,0.0,0.0,60,0.00,,---,0.00,VWS V13.01,2013-04-15 23:57:00,
2013-04-15 20:02:00,83.9,68.1,29.84,ENE,63,0.0,0.0,59,0.00,,---,0.00,VWS V13.01,2013-04-16 00:02:00,
2013-04-15 20:08:00,83.5,68.7,29.84,ENE,63,0.0,0.0,61,0.00,,---,0.00,VWS V13.01,2013-04-16 00:08:00,
2013-04-15 20:13:00,83.2,68.4,29.85,ENE,63,0.0,0.0,61,0.00,,---,0.00,VWS V13.01,2013-04-16 00:13:00,
2013-04-15 20:18:00,82.9,68.1,29.85,ENE,63,0.0,0.0,61,0.00,,---,0.00,VWS V13.01,2013-04-16 00:18:00,
2013-04-15 20:23:00,82.5,67.2,29.85,ENE,63,0.0,0.0,60,0.00,,---,0.00,VWS V13.01,2013-04-16 00:23:00,
2013-04-15 20:28:00,82.3,68.0,29.86,ENE,63,0.0,0.0,62,0.00,,---,0.00,VWS V13.01,2013-04-16 00:28:00,
2013-04-15 20:33:00,82.1,67.8,29.86,ESE,106,2.0,5.0,62,0.00,,---,0.00,VWS V13.01,2013-04-16 00:33:00,
2013-04-15 20:38:00,81.8,68.4,29.87,ESE,115,2.0,6.0,64,0.00,,---,0.00,VWS V13.01,2013-04-16 00:38:00,
2013-04-15 20:43:00,81.5,68.6,29.87,ESE,107,4.0,6.0,65,0.00,,---,0.00,VWS V13.01,2013-04-16 00:43:00,
2013-04-15 20:48:00,81.1,68.7,29.87,SE,134,2.0,9.0,66,0.00,,---,0.00,VWS V13.01,2013-04-16 00:48:00,
2013-04-15 20:53:00,80.8,68.8,29.87,East,97,0.0,9.0,67,0.00,,---,0.00,VWS V13.01,2013-04-16 00:53:00,
2013-04-15 20:58:00,80.5,68.5,29.88,ESE,111,0.0,1.0,67,0.00,,---,0.00,VWS V13.01,2013-04-16 00:58:00,
2013-04-15 21:03:00,80.3,68.8,29.88,East,100,0.0,5.0,68,0.00,,---,0.00,VWS V13.01,2013-04-16 01:03:00,
2013-04-15 21:08:00,80.1,68.6,29.88,East,89,0.0,6.0,68,0.00,,---,0.00,VWS V13.01,2013-04-16 01:08:00,
2013-04-15 21:13:00,79.9,68.4,29.88,ESE,105,0.0,6.0,68,0.00,,---,0.00,VWS V13.01,2013-04-16 01:13:00,
2013-04-15 21:18:00,79.7,68.2,29.89,ESE,114,3.0,4.0,68,0.00,,---,0.00,VWS V13.01,2013-04-16 01:18:00,
2013-04-15 21:23:00,79.5,68.4,29.89,SE,131,0.0,4.0,69,0.00,,---,0.00,VWS V13.01,2013-04-16 01:23:00,
2013-04-15 21:28:00,79.3,68.3,29.90,ESE,116,0.0,4.0,69,0.00,,---,0.00,VWS V13.01,2013-04-16 01:28:00,
2013-04-15 21:33:00,79.1,68.5,29.90,SE,128,0.0,4.0,70,0.00,,---,0.00,VWS V13.01,2013-04-16 01:33:00,
2013-04-15 21:38:00,78.9,68.7,29.90,SE,134,0.0,0.0,71,0.00,,---,0.00,VWS V13.01,2013-04-16 01:38:00,
2013-04-15 21:44:00,78.7,68.9,29.90,ESE,115,0.0,1.0,72,0.00,,---,0.00,VWS V13.01,2013-04-16 01:44:00,
2013-04-15 21:49:00,78.6,68.8,29.91,ESE,115,0.0,0.0,72,0.00,,---,0.00,VWS V13.01,2013-04-16 01:49:00,
2013-04-15 21:54:00,78.4,68.6,29.91,ESE,115,0.0,2.0,72,0.00,,---,0.00,VWS V13.01,2013-04-16 01:54:00,
2013-04-15 21:59:00,78.2,68.8,29.91,ESE,104,0.0,2.0,73,0.00,,---,0.00,VWS V13.01,2013-04-16 01:59:00,
2013-04-15 22:04:00,78.0,68.7,29.91,ESE,109,0.0,2.0,73,0.00,,---,0.00,VWS V13.01,2013-04-16 02:04:00,
2013-04-15 22:09:00,77.7,68.8,29.92,ESE,111,0.0,0.0,74,0.00,,---,0.00,VWS V13.01,2013-04-16 02:09:00,
2013-04-15 22:14:00,77.5,69.0,29.92,ESE,111,0.0,0.0,75,0.00,,---,0.00,VWS V13.01,2013-04-16 02:14:00,
2013-04-15 22:19:00,77.3,68.8,29.92,ESE,116,0.0,0.0,75,0.00,,---,0.00,VWS V13.01,2013-04-16 02:19:00,
2013-04-15 22:24:00,77.1,69.0,29.92,ESE,115,0.0,1.0,76,0.00,,---,0.00,VWS V13.01,2013-04-16 02:24:00,
2013-04-15 22:29:00,77.0,68.9,29.92,ESE,119,0.0,0.0,76,0.00,,---,0.00,VWS V13.01,2013-04-16 02:29:00,
2013-04-15 22:34:00,76.9,69.2,29.92,SE,131,0.0,3.0,77,0.00,,---,0.00,VWS V13.01,2013-04-16 02:34:00,
2013-04-15 22:39:00,76.8,69.4,29.92,SE,128,0.0,0.0,78,0.00,,---,0.00,VWS V13.01,2013-04-16 02:39:00,
2013-04-15 22:44:00,76.7,69.3,29.92,SE,128,0.0,0.0,78,0.00,,---,0.00,VWS V13.01,2013-04-16 02:44:00,
2013-04-15 22:49:00,76.6,69.6,29.92,SE,128,0.0,0.0,79,0.00,,---,0.00,VWS V13.01,2013-04-16 02:49:00,
2013-04-15 22:54:00,76.5,69.5,29.92,SE,128,0.0,0.0,79,0.00,,---,0.00,VWS V13.01,2013-04-16 02:54:00,
2013-04-15 22:59:00,76.4,69.4,29.92,SE,128,0.0,0.0,79,0.00,,---,0.00,VWS V13.01,2013-04-16 02:59:00,
2013-04-15 23:04:00,76.2,69.2,29.92,SE,128,0.0,1.0,79,0.00,,---,0.00,VWS V13.01,2013-04-16 03:04:00,
2013-04-15 23:09:00,76.2,69.6,29.92,SE,128,0.0,0.0,80,0.00,,---,0.00,VWS V13.01,2013-04-16 03:09:00,
2013-04-15 23:14:00,76.0,69.4,29.93,SE,128,0.0,0.0,80,0.00,,---,0.00,VWS V13.01,2013-04-16 03:14:00,
2013-04-15 23:20:00,75.8,69.2,29.93,ENE,75,0.0,1.0,80,0.00,,---,0.00,VWS V13.01,2013-04-16 03:20:00,
2013-04-15 23:25:00,75.7,69.1,29.93,ESE,105,0.0,1.0,80,0.00,,---,0.00,VWS V13.01,2013-04-16 03:25:00,
2013-04-15 23:30:00,75.5,69.3,29.93,ENE,63,0.0,3.0,81,0.00,,---,0.00,VWS V13.01,2013-04-16 03:30:00,
2013-04-15 23:35:00,75.4,69.2,29.93,ENE,67,0.0,3.0,81,0.00,,---,0.00,VWS V13.01,2013-04-16 03:35:00,
2013-04-15 23:40:00,75.3,69.4,29.93,East,80,0.0,3.0,82,0.00,,---,0.00,VWS V13.01,2013-04-16 03:40:00,
2013-04-15 23:45:00,75.1,69.2,29.92,East,80,0.0,3.0,82,0.00,,---,0.00,VWS V13.01,2013-04-16 03:45:00,
2013-04-15 23:50:00,74.9,69.4,29.92,ESE,107,0.0,1.0,83,0.00,,---,0.00,VWS V13.01,2013-04-16 03:50:00,
2013-04-15 23:55:00,74.8,69.7,29.92,ESE,111,0.0,1.0,84,0.00,,---,0.00,VWS V13.01,2013-04-16 03:55:00,